Regional Weather Roundup
Issued by NWS Goodland, KS

Home | Current Version | Previous Version | Graphics & Text | Print | Product List | Glossary Off
Versions: 1 2 3 4 5 6 7 8 9 10 11 12 13 14 15 16 17 18 19 20 21 22 23 24 25 26 27 28 29 30 31 32 33 34 35 36 37 38 39 40 41 42 43 44 45 46 47 48 49 50

041
ASUS43 KGLD 190008
RWRGLD

GOODLAND FORECAST AREA HOURLY WEATHER ROUNDUP
NATIONAL WEATHER SERVICE GOODLAND KS
600 PM MDT WED OCT 18 2017

...OFFICIAL OBSERVATIONS...

CITY           SKY/WX    TMP DP  RH WIND       PRES   REMARKS
GOODLAND KS    CLEAR     65  32  29 E5        30.08R
HILL CITY KS   CLEAR     67  38  34 N10       30.03R
IMPERIAL NEB   CLEAR     62  30  29 E7        30.10R
MCCOOK NEB     CLEAR     64  35  34 NE8       30.07R
AKRON CO       CLEAR     63  21  20 E8        30.11R
BURLINGTON CO  CLEAR     66  23  19 E8        30.10R
LIMON CO       CLEAR     64  20  18 S7        30.15R
$$

...UNOFFICIAL OBSERVATIONS...

CITY           SKY/WX    TMP DP  RH WIND       PRES   REMARKS
LENORA KS        N/A     68  32  26 MISG        N/A
NORTON KS      CLEAR     63  28  27 N7        30.04R
SHARON SPRINGS   N/A     70  29  22 CALM        N/A
TRENTON NEB      N/A     64  32  30 E6          N/A
YUMA CO        FAIR      63  28  27 E8        30.09S
$$




USA.gov is the U.S. government's official web portal to all federal, state and local government web resources and services.